Showing default

LYNK TOWER 3, 55046

Orbit data source: Space-Track

LYNK TOWER 3, 55046 is a payload satellite owned by Lynk (US) in SSO that was launched on Tue, 03 Jan 2023 UTC via an FALCON 9 launch vehicle from the Air Force Eastern Test Range (AFETR). Payloads include a variety of satellites, spacecraft, and rockets equipped with specific instruments for various scientific and technological missions. These include communications satellites like Starlink; space stations such as the ISS; scientific satellites like the Hubble; Earth observation satellites from companies like Planet Labs, Umbra, and HawkEye 360; GPS; miniature CubeSats for education and research; and military/defense satellites.

Loading next visibility...
LYNK TOWER 3 details
Identifier
55046, 2023-001AP
Orbit
SSO
Last TLE update1 day ago
Origin
Flag of USLynk (US)
ManufacturerLynk
MissionOperational Commercial Communications
Bus & MotorLYNK SHANNON, Unknown motor
Mass~80 kg wet, ~80 kg dry
Launch date (UTC)
2023-01-03 (2 years ago)
Launch vehicle
FALCON 9
Launch site
Air Force Eastern Test Range (AFETR)
Object type
Payload
Rocket body
Debris
Shape & HBRBox, 1 m
Radar Cross Section0.650 m², Medium (>0.1 m² and < 1m²)

Expand to show TLE details & history

TLE from 1 day ago
0 LYNK TOWER 3
1 55046U 23001AP  25035.13006458  .00009801  00000-0  40481-3 0  9996
2 55046  97.3938  95.2170 0011860  89.4874 270.7723 15.24150246115758
Epoch: 2025-02-04T03:07Z
Definitive object data (Epoch: 2025-02-04T03:07:17.579Z)
Latitude0.00002°
Longitude-86.14603°
Altitude496.334 km
Speed7.617 km/s
True Right ascension06h 20m 52s
True Declination0° 00' 00"
Sunlit
Object was in full shadow at TLE epoch
Visualization TLE readout
Latitude-56.03501°
Longitude-73.88075°
Altitude521.427 km
Speed7.598 km/s
Apparent Right ascension02h 09m 43s
Apparent Declination-66° 53' 20"
Sunlit
Object is in daylight
Visualization observer readout
Local Sidereal Time10:51:12
Azimuth208.875° SW
Elevation-51.736°
Doppler factor1
Orbital elements
Apogee altitude498.444 km
Perigee altitude482.152 km
Semi-major axis6,868.435 km
Eccentricity0.001186
Inclination97.3938°
RAAN95.217°
Arg. of periapsis89.4874°
True anomaly270.6364°
Mean anomaly270.7723°
Eccentric anomaly270.70435°
Mean motion3.81291 °/min
BSTAR0.00040481
Orbital period94.42 mins
Loading maneuver chart data...
Loading historical data...
Loading historical data...
Loading historical data...
Loading historical data...
Loading historical data...
Loading historical data...
Loading historical data...

LYNK TOWER 3 Visibility forecast

Observer location: undefined°, undefined

Span
Click to sort rows by Start time (UTC) header in descending order
Start Az.
Max El. time (UTC)
Max El. Az.
Max El.
End time (UTC)
End Az.
4 mins2025-02-05 15:56:38.570Z55.127° ENE2025-02-05 15:58:38.570Z94.834° ESE18.395°2025-02-05 16:00:38.570Z134.423° SE
4 mins2025-02-05 17:30:38.570Z325.563° NNW2025-02-05 17:32:38.570Z277.605° WNW20.89°2025-02-05 17:34:38.570Z240.582° WSW
5 mins2025-02-06 04:06:38.570Z184.448° SSW2025-02-06 04:08:38.570Z283.282° WNW41.578°2025-02-06 04:11:38.570Z341.037° N
|